Other Public Products
Issued by NWS Charleston, SC

Current Version | Previous Version | Graphics & Text | Print | Product List | Glossary On
Versions: 1 2 3 4 5 6 7 8 9 10 11 12 13 14 15 16 17 18 19 20 21 22 23 24 25 26 27 28 29 30 31 32 33 34 35 36 37 38 39 40 41 42 43 44 45 46 47 48 49 50
840 FPUS82 KCHS 250527 OPUCHS TEST...KCHS/KSAV Gateway Observations...TEST National Weather Service Charleston SC 100 AM EDT SUN JUN 25 2017 NOTE: "fair" indicates few or no clouds below 12,000 feet with no significant weather and/or obstructions to visibility. SCZ050-WAZ558-NCZ071-TXZ119-213-PAZ071-DCZ001-FLZ074-172-MI076- NYZ176-178-MAZ016-IL014-TNZ027-NJZ106-GAZ044-MD014-250600- ...Gateway Observations for Charleston International... CITY SKY/WX TMP DP RH WIND PRES REMARKS Chas Airport MOCLDY 78 75 90 S3 30.05F Seattle CLEAR 75 51 43 N10 29.99S Charlotte CLOUDY 71 67 87 W3 30.06R Dallas DFW PTCLDY 75 63 66 E7 30.16R Dallas Love PTCLDY 75 63 66 E6 30.17R Philladelphia PTCLDY 75 61 61 SW6 29.93F Wash National PTCLDY 74 65 73 N8 29.97S Baltimore PTCLDY 68 63 84 W6 29.96S Miami PTCLDY 84 74 71 E12 30.10F HX 91 Detroit PTCLDY 62 49 62 W7 30.02S Newark PTCLDY 75 58 55 NW9 29.92R Laguardia PTCLDY 75 62 64 NW8 29.91R J F K CLOUDY 76 60 57 NW13 29.92R Boston Logan PTCLDY 74 54 49 W12 29.85R Ft. Lauderdale PTCLDY 83 76 79 SE12 30.09F HX 91 Chicago O`Hare MOCLDY 59 51 75 W7 30.05F Chicago Midway MOCLDY 63 49 60 W7 30.06R Houston Bush MOCLDY 77 74 90 N5 30.10R Houston Hobby MOCLDY 78 74 87 E3 30.09R Nashville PTCLDY 70 54 56 N5 30.17R Atlanta CLOUDY 72 71 97 W5 30.10R $$ GAZ044-118-TXZ119-213-NCZ071-DCZ001-MDZ014-506-PAZ021-071-NJZ106- NYZ176-178-MAZ106-OHZ011-021-055-MIZ076-KYZ091-ILZ014-INZ047- MNZ060-ONZ431-250600- ...Gateway Observations for Savannah International... CITY SKY/WX TMP DP RH WIND PRES REMARKS Savannah Arpt PTCLDY 81 74 79 W3 30.07R Atlanta CLOUDY 72 71 97 W5 30.10R Charlotte CLOUDY 71 67 87 W3 30.06R Dallas DFW PTCLDY 75 63 66 E7 30.16R Houston Bush MOCLDY 77 74 90 N5 30.10R Wash National PTCLDY 74 65 73 N8 29.97S Wash Dulles PTCLDY 67 61 81 CALM 29.98S Baltimore PTCLDY 68 63 84 W6 29.96S Philadelphia PTCLDY 75 61 61 SW6 29.93F Newark PTCLDY 75 58 55 NW9 29.92R Laguardia PTCLDY 75 62 64 NW8 29.91R J F K CLOUDY 76 60 57 NW13 29.92R Boston PTCLDY 74 54 49 W12 29.85R Pittsburg PTCLDY 65 57 75 NW7 30.01S Akron PTCLDY 61 54 77 NW6 30.03S Cleveland MOCLDY 68 54 60 W7 30.04R Cincinnati PTCLDY 62 53 72 W6 30.11S Columbus CLEAR 63 53 70 W5 30.07S Detroit PTCLDY 62 49 62 W7 30.02S Chicago O`Hare MOCLDY 59 51 75 W7 30.05F Minneapolis PTCLDY 57 47 69 NW12 30.08R Indianapolis CLEAR 60 49 66 W7 30.13S Toronto Canada PTCLDY 63 52 67 W3 29.92R $$

USA.gov is the U.S. government's official web portal to all federal, state and local government web resources and services.